Voltar ao catálogo

ONEWEB-0027

AtivoComunicaçõesPO
NORAD 45432·PAYLOAD·🇬🇧 United Kingdom

Lançado Mar 21, 2020 de Baikonur Cosmodrome

Loading…

Próximas Passagens (próximas 24 horas)

TLE

AtualizadoSource: CelesTrak SupGP

Época: Sep 14, 2026, 20:59 UTC

1 45432C 20020J   26257.87479583 -.00000943  00000+0 -24316-2 0  2577
2 45432  87.9205 348.0558 0001491 103.4107 299.8998 13.17648492    15

Acompanhe ONEWEB-0027 em tempo real com AllMySat

Download on the App Store